Location: Bletchingley
(51.2333°N, 0.1000°W)
Time: 22:44:22
(UTC+00:00)

SJ-6B - Pass Details

Date: 18 September 2020
Orbit: 511 x 580 km, 97.6° (Epoch: 30 October)

Event Time Altitude Azimuth Distance (km) Brightness Sun altitude
Exits shadow 19:22:17 12° 150° (SSE) 1,620 4.8 -12.4°
Maximum altitude 19:25:41 58° 72° (ENE) 604 2.7 -12.9°
Drops below altitude 10° 19:29:24 10° 353° (N) 1,760 5.7 -13.5°
Sets 19:31:32 0° 350° (N) 2,660 6.8 -13.8°
